Hourly Weather Roundup
Issued by NWS Central Illinois

Home | Current Version | Previous Version | Text Only | Print | Product List | Glossary On
Versions: 1 2 3 4 5 6 7 8 9 10 11 12 13 14 15 16 17 18 19 20 21 22 23 24 25 26 27 28 29 30 31 32 33 34 35 36 37 38 39 40 41 42 43 44 45 46 47 48 49 50
000
NZUS43 KILX 311110
HWRILX

AREA WEATHER ROUNDUP
NATIONAL WEATHER SERVICE, LINCOLN IL
600 AM CDT THU JUL 31 2014


CITY           SKY/WX    TMP DP  RH WIND       PRES   REMARKS
BLOOMINGTON    CLEAR     56  54  93 SW5       30.09R
CHAMPAIGN      CLEAR     57  55  93 NW5       30.08R
DECATUR        CLEAR     61  56  83 CALM      30.08R
FLORA          PTCLDY    55  54  98 SE3       30.09R FOG
GALESBURG      CLEAR     54  53  99 CALM      30.07S FOG
JACKSONVILLE   CLEAR     59  58  96 SW3       30.10R
LACON          PTCLDY    57  56  95 CALM      30.05S
LAWRENCEVILLE  CLEAR     59  58  96 S3        30.09R FOG
LITCHFIELD     CLEAR     57  55  94 N3        30.08S
$$


CITY           SKY/WX    TMP DP  RH WIND       PRES   REMARKS
LINCOLN        CLEAR     58  56  94 CALM      30.06R FOG
MACOMB           N/A     55  55  99 W3        30.10R
MATTOON        CLEAR     62  58  86 SW5       30.08R
MT CARMEL AP   FOG       59  57  94 CALM      30.08S VSB 1
OLNEY-NOBLE AP CLEAR     55  55 100 CALM      30.09R FOG
PARIS          CLEAR     56  56  97 SW3       30.08S
PEORIA         CLEAR     61  56  83 CALM      30.07S
PONTIAC        CLEAR     55  55 100 CALM      30.06S FOG
RANTOUL        CLEAR     59  56  89 W6        30.08S
ROBINSON       FOG       56  56  97 S3        30.09S VSB 1/2
SPRINGFIELD    CLEAR     57  55  93 W5        30.08R
TAYLORVILLE    CLEAR     55  55 100 CALM      30.09R FOG
$$

...REGIONAL REPORTS...


CITY           SKY/WX    TMP DP  RH WIND       PRES   REMARKS
CHICAGO O`HARE PTCLDY    62  56  80 W6        30.02S
KANKAKEE       CLEAR     52  52  99 SW3       30.06R FOG
MOLINE         CLEAR     59  56  89 CALM      30.05S
MOUNT VERNON     N/A     55  52  88 CALM      30.10R VSB 3/4
PITTSFIELD     CLEAR     58  55  91 CALM      30.10S
QUINCY         CLEAR     59  57  93 SW5       30.09R FOG
ROCKFORD       PTCLDY    57  53  86 S6        30.06R
$$


CITY           SKY/WX    TMP DP  RH WIND       PRES   REMARKS
BURLINGTON     CLEAR     56  55  97 CALM      30.08R FOG
CEDAR RAPIDS   CLEAR     58  56  93 W3        30.06S
DES MOINES     PTCLDY    60  55  83 CALM      30.09R
KIRKSVILLE     PTCLDY    54  53  97 CALM      30.11R FOG
OTTUMWA        CLEAR     56  55  97 W5        30.09R
ST LOUIS       PTCLDY    66  59  78 CALM      30.09R
$$


CITY           SKY/WX    TMP DP  RH WIND       PRES   REMARKS
TERRE HAUTE    CLEAR     56  54  93 CALM      30.08R
EVANSVILLE     CLEAR     61  58  90 CALM      30.09R
INDIANAPOLIS   PTCLDY    60  58  92 W3        30.07R
LAFAYETTE      FOG       56  55  97 W3        30.06S VSB 1/4
MADISON        CLEAR     63  57  81 CALM      30.01S
MILWAUKEE      CLOUDY    63  54  72 W6        30.00R
$$





USA.gov is the U.S. government's official web portal to all federal, state and local government web resources and services.